Regional Weather Roundup
Issued by NWS

Home | Current Version | Previous Version | Graphics & Text | Print | Product List | Glossary On
Versions: 1 2 3 4 5 6 7 8 9 10 11 12 13 14 15 16 17 18 19 20 21 22 23 24 25 26 27
000
ASUS45 KCYS 241610
RWRWY

WYOMING REGIONAL WEATHER ROUNDUP
NATIONAL WEATHER SERVICE CHEYENNE WY
1000 AM MDT TUE MAY 24 2016

NOTE:  "FAIR" INDICATES FEW OR NO CLOUDS BELOW 12,000 FEET
WITH NO SIGNIFICANT WEATHER AND/OR OBSTRUCTIONS TO VISIBILITY.

WYZ001-241700-
YELLOWSTONE NATIONAL PARK

CITY           SKY/WX    TMP DP  RH WIND       PRES   REMARKS
LK YELLOWSTONE   N/A     43  32  65 CALM      29.96F
W YELLOWSTONE  NOT AVBL

$$
WYZ002>013-054>058-071-098>099-241700-
NORTHERN WYOMING

CITY           SKY/WX    TMP DP  RH WIND       PRES   REMARKS
JACKSON        PTSUNNY   45  30  57 CALM      29.95F
CODY           FAIR      50  37  62 CALM      29.91F
GREYBULL       FAIR      57  34  41 VRB3      29.88F
WORLAND        FAIR      56  37  49 VRB6      29.89F
SHERIDAN       FAIR      56  37  49 VRB3      29.91F
BUFFALO          N/A     57  36  45 S6        29.92F
GILLETTE       FAIR      59  37  44 VRB6      29.92S
HULETT         FAIR      63  36  36 NE8       29.92S
NEWCASTLE      FAIR      61  30  31 S17G23    29.94S

$$
WYZ014>020-022>026-101>103-241700-
CENTRAL WYOMING

CITY           SKY/WX    TMP DP  RH WIND       PRES   REMARKS
BIG PINEY      FAIR      46  30  53 S5        29.97R
PINEDALE       FAIR      45  32  61 SE5       29.98F
DUBOIS         CLOUDY    48  25  40 CALM      29.94S
LANDER         PTSUNNY   53  31  42 N3        29.90F
RIVERTON       PTSUNNY   56  34  43 VRB5      29.91F
CASPER         FAIR      56  35  45 E5        29.92F
DOUGLAS        FAIR      59  38  45 SE8       29.93F

$$
WYZ021-027>030-104>119-241700-
SOUTHERN WYOMING

CITY           SKY/WX    TMP DP  RH WIND       PRES   REMARKS
EVANSTON       CLOUDY    50  33  52 VRB3      29.93F
KEMMERER         N/A     52  32  46 E5        29.95F
FORT BRIDGER   PTSUNNY   52  37  58 NW3       29.98S
ROCK SPRINGS   CLOUDY    54  33  45 E6        29.93F
DIXON          FAIR      58  31  36 W5        29.95S
RAWLINS        FAIR      52  31  44 E3        29.95F
SARATOGA       FAIR      55  32  41 E3        29.96F
LARAMIE        FAIR      58  39  49 S24       29.97F
CHEYENNE       FAIR      57  42  57 S23G29    29.99R
TORRINGTON     CLOUDY    58  45  62 SE6       29.93F
PINE BLUFFS    PTSUNNY   63  43  48 S13G20    29.98S

$$




USA.gov is the U.S. government's official web portal to all federal, state and local government web resources and services.